Year,Month,Day,Hour,Minute,Value (Times are PST for temperature in C)
2007,04,06,00,00,9.80
2007,04,06,00,01,9.90
2007,04,06,00,02,9.90
2007,04,06,00,03,9.90
2007,04,06,00,04,10.00
2007,04,06,00,05,10.00
2007,04,06,00,06,10.00
2007,04,06,00,07,10.00
2007,04,06,00,08,10.00
2007,04,06,00,09,10.00
2007,04,06,00,10,10.00
2007,04,06,00,11,10.00
2007,04,06,00,12,10.00
2007,04,06,00,13,10.00
2007,04,06,00,14,10.00
2007,04,06,00,15,10.00
2007,04,06,00,16,10.00
2007,04,06,00,17,10.00
2007,04,06,00,18,10.00
2007,04,06,00,19,10.00
2007,04,06,00,20,10.00
2007,04,06,00,21,10.00
2007,04,06,00,22,9.90
2007,04,06,00,23,9.90
2007,04,06,00,24,10.00
2007,04,06,00,25,10.00
2007,04,06,00,26,10.00
2007,04,06,00,27,10.00
2007,04,06,00,28,10.00
2007,04,06,00,29,10.00
2007,04,06,00,30,10.00
2007,04,06,00,31,10.00
2007,04,06,00,32,10.00
2007,04,06,00,33,9.90
2007,04,06,00,34,9.90
2007,04,06,00,35,9.90
2007,04,06,00,36,9.80
2007,04,06,00,37,9.80
2007,04,06,00,38,9.80
2007,04,06,00,39,9.70
2007,04,06,00,40,9.70
2007,04,06,00,41,9.70
2007,04,06,00,42,9.60
2007,04,06,00,43,9.60
2007,04,06,00,44,9.60
2007,04,06,00,45,9.50
2007,04,06,00,46,9.50
2007,04,06,00,47,9.50
2007,04,06,00,48,9.40
2007,04,06,00,49,9.40
2007,04,06,00,50,9.40
2007,04,06,00,51,9.50
2007,04,06,00,52,9.50
2007,04,06,00,53,9.50
2007,04,06,00,54,9.50
2007,04,06,00,55,9.40
2007,04,06,00,56,9.40
2007,04,06,00,57,9.40
2007,04,06,00,58,9.40
2007,04,06,00,59,9.40
2007,04,06,01,00,9.40
2007,04,06,01,01,9.30
2007,04,06,01,02,9.30
2007,04,06,01,03,9.30
2007,04,06,01,04,9.30
2007,04,06,01,05,9.30
2007,04,06,01,06,9.30
2007,04,06,01,07,9.30
2007,04,06,01,08,9.30
2007,04,06,01,09,9.30
2007,04,06,01,10,9.30
2007,04,06,01,11,9.30
2007,04,06,01,12,9.20
2007,04,06,01,13,9.20
2007,04,06,01,14,9.20
2007,04,06,01,15,9.20
2007,04,06,01,16,9.20
2007,04,06,01,17,9.20
2007,04,06,01,18,9.20
2007,04,06,01,19,9.20
2007,04,06,01,20,9.20
2007,04,06,01,21,9.20
2007,04,06,01,22,9.20
2007,04,06,01,23,9.20
2007,04,06,01,24,9.10
2007,04,06,01,25,9.10
2007,04,06,01,26,9.10
2007,04,06,01,27,9.10
2007,04,06,01,28,9.10
2007,04,06,01,29,9.20
2007,04,06,01,30,9.20
2007,04,06,01,31,9.20
2007,04,06,01,32,9.20
2007,04,06,01,33,9.20
2007,04,06,01,34,9.20
2007,04,06,01,35,9.20
2007,04,06,01,36,9.30
2007,04,06,01,37,9.30
2007,04,06,01,38,9.30
2007,04,06,01,39,9.30
2007,04,06,01,40,9.30
2007,04,06,01,41,9.30
2007,04,06,01,42,9.20
2007,04,06,01,43,9.20
2007,04,06,01,44,9.20
2007,04,06,01,45,9.20
2007,04,06,01,46,9.20
2007,04,06,01,47,9.10
2007,04,06,01,48,9.10
2007,04,06,01,49,9.10
2007,04,06,01,50,9.10
2007,04,06,01,51,9.10
2007,04,06,01,52,9.10
2007,04,06,01,53,9.10
2007,04,06,01,54,9.00
2007,04,06,01,55,9.00
2007,04,06,01,56,9.00
2007,04,06,01,57,9.00
2007,04,06,01,58,8.90
2007,04,06,01,59,8.90
2007,04,06,02,00,8.90
2007,04,06,02,01,8.90
2007,04,06,02,02,8.80
2007,04,06,02,03,8.80
2007,04,06,02,04,8.80
2007,04,06,02,05,8.80
2007,04,06,02,06,8.70
2007,04,06,02,07,8.70
2007,04,06,02,08,8.70
2007,04,06,02,09,8.70
2007,04,06,02,10,8.70
2007,04,06,02,11,8.70
2007,04,06,02,12,8.60
2007,04,06,02,13,8.60
2007,04,06,02,14,8.60
2007,04,06,02,15,8.60
2007,04,06,02,16,8.60
2007,04,06,02,17,8.60
2007,04,06,02,18,8.60
2007,04,06,02,19,8.70
2007,04,06,02,20,8.70
2007,04,06,02,21,8.70
2007,04,06,02,22,8.70
2007,04,06,02,23,8.70
2007,04,06,02,24,8.70
2007,04,06,02,25,8.70
2007,04,06,02,26,8.60
2007,04,06,02,27,8.60
2007,04,06,02,28,8.60
2007,04,06,02,29,8.60
2007,04,06,02,30,8.60
2007,04,06,02,31,8.60
2007,04,06,02,32,8.60
2007,04,06,02,33,8.70
2007,04,06,02,34,8.60
2007,04,06,02,35,8.60
2007,04,06,02,36,8.60
2007,04,06,02,37,8.60
2007,04,06,02,38,8.60
2007,04,06,02,39,8.60
2007,04,06,02,40,8.60
2007,04,06,02,41,8.60
2007,04,06,02,42,8.60
2007,04,06,02,43,8.60
2007,04,06,02,44,8.60
2007,04,06,02,45,8.50
2007,04,06,02,46,8.50
2007,04,06,02,47,8.50
2007,04,06,02,48,8.50
2007,04,06,02,49,8.50
2007,04,06,02,50,8.50
2007,04,06,02,51,8.50
2007,04,06,02,52,8.60
2007,04,06,02,53,8.50
2007,04,06,02,54,8.60
2007,04,06,02,55,8.60
2007,04,06,02,56,8.60
2007,04,06,02,57,8.60
2007,04,06,02,58,8.60
2007,04,06,02,59,8.60
2007,04,06,03,00,8.60
2007,04,06,03,01,8.60
2007,04,06,03,02,8.60
2007,04,06,03,03,8.60
2007,04,06,03,04,8.60
2007,04,06,03,05,8.60
2007,04,06,03,06,8.60
2007,04,06,03,07,8.60
2007,04,06,03,08,8.50
2007,04,06,03,09,8.50
2007,04,06,03,10,8.50
2007,04,06,03,11,8.50
2007,04,06,03,12,8.50
2007,04,06,03,13,8.50
2007,04,06,03,14,8.50
2007,04,06,03,15,8.60
2007,04,06,03,16,8.60
2007,04,06,03,17,8.60
2007,04,06,03,18,8.60
2007,04,06,03,19,8.60
2007,04,06,03,20,8.60
2007,04,06,03,21,8.60
2007,04,06,03,22,8.60
2007,04,06,03,23,8.60
2007,04,06,03,24,8.60
2007,04,06,03,25,8.60
2007,04,06,03,26,8.60
2007,04,06,03,27,8.50
2007,04,06,03,28,8.50
2007,04,06,03,29,8.50
2007,04,06,03,30,8.50
2007,04,06,03,31,8.50
2007,04,06,03,32,8.50
2007,04,06,03,33,8.50
2007,04,06,03,34,8.50
2007,04,06,03,35,8.50
2007,04,06,03,36,8.40
2007,04,06,03,37,8.40
2007,04,06,03,38,8.40
2007,04,06,03,39,8.50
2007,04,06,03,40,8.50
2007,04,06,03,41,8.50
2007,04,06,03,42,8.50
2007,04,06,03,43,8.50
2007,04,06,03,44,8.50
2007,04,06,03,45,8.50
2007,04,06,03,46,8.50
2007,04,06,03,47,8.50
2007,04,06,03,48,8.50
2007,04,06,03,49,8.50
2007,04,06,03,50,8.40
2007,04,06,03,51,8.40
2007,04,06,03,52,8.40
2007,04,06,03,53,8.30
2007,04,06,03,54,8.30
2007,04,06,03,55,8.30
2007,04,06,03,56,8.30
2007,04,06,03,57,8.30
2007,04,06,03,58,8.30
2007,04,06,03,59,8.30
2007,04,06,04,00,8.30
2007,04,06,04,01,8.30
2007,04,06,04,02,8.20
2007,04,06,04,03,8.20
2007,04,06,04,04,8.20
2007,04,06,04,05,8.20
2007,04,06,04,06,8.20
2007,04,06,04,07,8.10
2007,04,06,04,08,8.10
2007,04,06,04,09,8.10
2007,04,06,04,10,8.10
2007,04,06,04,11,8.10
2007,04,06,04,12,8.10
2007,04,06,04,13,8.00
2007,04,06,04,14,8.00
2007,04,06,04,15,8.00
2007,04,06,04,16,8.00
2007,04,06,04,17,8.00
2007,04,06,04,18,8.00
2007,04,06,04,19,8.00
2007,04,06,04,20,7.90
2007,04,06,04,21,7.90
2007,04,06,04,22,7.90
2007,04,06,04,23,7.90
2007,04,06,04,24,7.90
2007,04,06,04,25,7.90
2007,04,06,04,26,7.90
2007,04,06,04,27,7.80
2007,04,06,04,28,7.80
2007,04,06,04,29,7.80
2007,04,06,04,30,7.80
2007,04,06,04,31,7.80
2007,04,06,04,32,7.80
2007,04,06,04,33,7.80
2007,04,06,04,34,7.80
2007,04,06,04,35,7.80
2007,04,06,04,36,7.80
2007,04,06,04,37,7.80
2007,04,06,04,38,7.70
2007,04,06,04,39,7.70
2007,04,06,04,40,7.70
2007,04,06,04,41,7.70
2007,04,06,04,42,7.70
2007,04,06,04,43,7.60
2007,04,06,04,44,7.60
2007,04,06,04,45,7.60
2007,04,06,04,46,7.50
2007,04,06,04,47,7.50
2007,04,06,04,48,7.50
2007,04,06,04,49,7.40
2007,04,06,04,50,7.40
2007,04,06,04,51,7.40
2007,04,06,04,52,7.40
2007,04,06,04,53,7.40
2007,04,06,04,54,7.40
2007,04,06,04,55,7.40
2007,04,06,04,56,7.40
2007,04,06,04,57,7.40
2007,04,06,04,58,7.40
2007,04,06,04,59,7.40
2007,04,06,05,00,7.40
2007,04,06,05,01,7.40
2007,04,06,05,02,7.40
2007,04,06,05,03,7.30
2007,04,06,05,04,7.30
2007,04,06,05,05,7.30
2007,04,06,05,06,7.30
2007,04,06,05,07,7.30
2007,04,06,05,08,7.20
2007,04,06,05,09,7.20
2007,04,06,05,10,7.20
2007,04,06,05,11,7.20
2007,04,06,05,12,7.20
2007,04,06,05,13,7.20
2007,04,06,05,14,7.20
2007,04,06,05,15,7.10
2007,04,06,05,16,7.10
2007,04,06,05,17,7.10
2007,04,06,05,18,7.20
2007,04,06,05,19,7.20
2007,04,06,05,20,7.20
2007,04,06,05,21,7.20
2007,04,06,05,22,7.20
2007,04,06,05,23,7.20
2007,04,06,05,24,7.20
2007,04,06,05,25,7.20
2007,04,06,05,26,7.20
2007,04,06,05,27,7.20
2007,04,06,05,28,7.10
2007,04,06,05,29,7.10
2007,04,06,05,30,7.10
2007,04,06,05,31,7.10
2007,04,06,05,32,7.10
2007,04,06,05,33,7.10
2007,04,06,05,34,7.00
2007,04,06,05,35,7.00
2007,04,06,05,36,7.00
2007,04,06,05,37,7.00
2007,04,06,05,38,7.00
2007,04,06,05,39,7.00
2007,04,06,05,40,7.00
2007,04,06,05,41,6.90
2007,04,06,05,42,6.90
2007,04,06,05,43,6.90
2007,04,06,05,44,6.90
2007,04,06,05,45,6.90
2007,04,06,05,46,6.90
2007,04,06,05,47,6.90
2007,04,06,05,48,6.90
2007,04,06,05,49,6.90
2007,04,06,05,50,6.90
2007,04,06,05,51,6.90
2007,04,06,05,52,6.90
2007,04,06,05,53,6.90
2007,04,06,05,54,6.90
2007,04,06,05,55,6.90
2007,04,06,05,56,6.90
2007,04,06,05,57,6.90
2007,04,06,05,58,6.90
2007,04,06,05,59,6.90
2007,04,06,06,00,6.90
2007,04,06,06,01,6.90
2007,04,06,06,02,7.00
2007,04,06,06,03,7.00
2007,04,06,06,04,7.00
2007,04,06,06,05,7.00
2007,04,06,06,06,7.10
2007,04,06,06,07,7.10
2007,04,06,06,08,7.10
2007,04,06,06,09,7.10
2007,04,06,06,10,7.20
2007,04,06,06,11,7.20
2007,04,06,06,12,7.20
2007,04,06,06,13,7.20
2007,04,06,06,14,7.20
2007,04,06,06,15,7.20
2007,04,06,06,16,7.20
2007,04,06,06,17,7.20
2007,04,06,06,18,7.30
2007,04,06,06,19,7.30
2007,04,06,06,20,7.30
2007,04,06,06,21,7.30
2007,04,06,06,22,7.40
2007,04,06,06,23,7.40
2007,04,06,06,24,7.40
2007,04,06,06,25,7.50
2007,04,06,06,26,7.60
2007,04,06,06,27,7.60
2007,04,06,06,28,7.60
2007,04,06,06,29,7.60
2007,04,06,06,30,7.70
2007,04,06,06,31,7.70
2007,04,06,06,32,7.70
2007,04,06,06,33,7.70
2007,04,06,06,34,7.70
2007,04,06,06,35,7.80
2007,04,06,06,36,7.80
2007,04,06,06,37,7.80
2007,04,06,06,38,7.80
2007,04,06,06,39,7.80
2007,04,06,06,40,7.80
2007,04,06,06,41,7.80
2007,04,06,06,42,7.80
2007,04,06,06,43,7.80
2007,04,06,06,44,7.80
2007,04,06,06,45,7.80
2007,04,06,06,46,7.80
2007,04,06,06,47,7.90
2007,04,06,06,48,7.90
2007,04,06,06,49,7.90
2007,04,06,06,50,7.90
2007,04,06,06,51,8.00
2007,04,06,06,52,8.00
2007,04,06,06,53,8.00
2007,04,06,06,54,8.00
2007,04,06,06,55,8.00
2007,04,06,06,56,8.00
2007,04,06,06,57,8.00
2007,04,06,06,58,8.00
2007,04,06,06,59,8.00
2007,04,06,07,00,8.00
2007,04,06,07,01,8.10
2007,04,06,07,02,8.10
2007,04,06,07,03,8.20
2007,04,06,07,04,8.20
2007,04,06,07,05,8.20
2007,04,06,07,06,8.20
2007,04,06,07,07,8.20
2007,04,06,07,08,8.20
2007,04,06,07,09,8.20
2007,04,06,07,10,8.20
2007,04,06,07,11,8.20
2007,04,06,07,12,8.20
2007,04,06,07,13,8.20
2007,04,06,07,14,8.20
2007,04,06,07,15,8.20
2007,04,06,07,16,8.20
2007,04,06,07,17,8.20
2007,04,06,07,18,8.20
2007,04,06,07,19,8.20
2007,04,06,07,20,8.20
2007,04,06,07,21,8.30
2007,04,06,07,22,8.30
2007,04,06,07,23,8.30
2007,04,06,07,24,8.30
2007,04,06,07,25,8.30
2007,04,06,07,26,8.30
2007,04,06,07,27,8.30
2007,04,06,07,28,8.30
2007,04,06,07,29,8.30
2007,04,06,07,30,8.30
2007,04,06,07,31,8.30
2007,04,06,07,32,8.30
2007,04,06,07,33,8.30
2007,04,06,07,34,8.30
2007,04,06,07,35,8.30
2007,04,06,07,36,8.30
2007,04,06,07,37,8.30
2007,04,06,07,38,8.30
2007,04,06,07,39,8.30
2007,04,06,07,40,8.40
2007,04,06,07,41,8.40
2007,04,06,07,42,8.40
2007,04,06,07,43,8.40
2007,04,06,07,44,8.40
2007,04,06,07,45,8.40
2007,04,06,07,46,8.50
2007,04,06,07,47,8.50
2007,04,06,07,48,8.50
2007,04,06,07,49,8.50
2007,04,06,07,50,8.50
2007,04,06,07,51,8.60
2007,04,06,07,52,8.60
2007,04,06,07,53,8.60
2007,04,06,07,54,8.60
2007,04,06,07,55,8.70
2007,04,06,07,56,8.70
2007,04,06,07,57,8.70
2007,04,06,07,58,8.80
2007,04,06,07,59,8.80
2007,04,06,08,00,8.80
2007,04,06,08,01,8.90
2007,04,06,08,02,8.90
2007,04,06,08,03,8.90
2007,04,06,08,04,8.90
2007,04,06,08,05,8.90
2007,04,06,08,06,9.00
2007,04,06,08,07,9.00
2007,04,06,08,08,9.10
2007,04,06,08,09,9.10
2007,04,06,08,10,9.10
2007,04,06,08,11,9.20
2007,04,06,08,12,9.20
2007,04,06,08,13,9.20
2007,04,06,08,14,9.30
2007,04,06,08,15,9.30
2007,04,06,08,16,9.30
2007,04,06,08,17,9.30
2007,04,06,08,18,9.40
2007,04,06,08,19,9.40
2007,04,06,08,20,9.40
2007,04,06,08,21,9.50
2007,04,06,08,22,9.50
2007,04,06,08,23,9.50
2007,04,06,08,24,9.50
2007,04,06,08,25,9.50
2007,04,06,08,26,9.60
2007,04,06,08,27,9.60
2007,04,06,08,28,9.60
2007,04,06,08,29,9.60
2007,04,06,08,30,9.60
2007,04,06,08,31,9.60
2007,04,06,08,32,9.60
2007,04,06,08,33,9.70
2007,04,06,08,34,9.80
2007,04,06,08,35,9.80
2007,04,06,08,36,9.90
2007,04,06,08,37,10.00
2007,04,06,08,38,10.20
2007,04,06,08,39,10.20
2007,04,06,08,40,10.30
2007,04,06,08,41,10.50
2007,04,06,08,42,10.60
2007,04,06,08,43,10.70
2007,04,06,08,44,10.80
2007,04,06,08,45,10.90
2007,04,06,08,46,11.00
2007,04,06,08,47,11.20
2007,04,06,08,48,11.30
2007,04,06,08,49,11.40
2007,04,06,08,50,11.50
2007,04,06,08,51,11.70
2007,04,06,08,52,11.80
2007,04,06,08,53,11.90
2007,04,06,08,54,12.10
2007,04,06,08,55,12.20
2007,04,06,08,56,12.40
2007,04,06,08,57,12.50
2007,04,06,08,58,12.70
2007,04,06,08,59,12.80
2007,04,06,09,00,12.90
2007,04,06,09,01,13.00
2007,04,06,09,02,13.10
2007,04,06,09,03,13.20
2007,04,06,09,04,13.20
2007,04,06,09,05,13.20
2007,04,06,09,06,13.20
2007,04,06,09,07,13.30
2007,04,06,09,08,13.30
2007,04,06,09,09,13.30
2007,04,06,09,10,13.40
2007,04,06,09,11,13.40
2007,04,06,09,12,13.30
2007,04,06,09,13,13.30
2007,04,06,09,14,13.40
2007,04,06,09,15,13.40
2007,04,06,09,16,13.40
2007,04,06,09,17,13.50
2007,04,06,09,18,13.50
2007,04,06,09,19,13.50
2007,04,06,09,20,13.50
2007,04,06,09,21,13.60
2007,04,06,09,22,13.60
2007,04,06,09,23,13.60
2007,04,06,09,24,13.70
2007,04,06,09,25,13.70
2007,04,06,09,26,13.80
2007,04,06,09,27,13.80
2007,04,06,09,28,13.90
2007,04,06,09,29,13.90
2007,04,06,09,30,14.00
2007,04,06,09,31,14.00
2007,04,06,09,32,14.10
2007,04,06,09,33,14.10
2007,04,06,09,34,14.20
2007,04,06,09,35,14.30
2007,04,06,09,36,14.30
2007,04,06,09,37,14.40
2007,04,06,09,38,14.50
2007,04,06,09,39,14.50
2007,04,06,09,40,14.50
2007,04,06,09,41,14.40
2007,04,06,09,42,14.40
2007,04,06,09,43,14.40
2007,04,06,09,44,14.40
2007,04,06,09,45,14.50
2007,04,06,09,46,14.60
2007,04,06,09,47,14.60
2007,04,06,09,48,14.70
2007,04,06,09,49,14.70
2007,04,06,09,50,14.70
2007,04,06,09,51,14.90
2007,04,06,09,52,15.00
2007,04,06,09,53,15.00
2007,04,06,09,54,15.10
2007,04,06,09,55,15.10
2007,04,06,09,56,15.10
2007,04,06,09,57,15.00
2007,04,06,09,58,15.00
2007,04,06,09,59,15.00
2007,04,06,10,00,15.00
2007,04,06,10,01,15.00
2007,04,06,10,02,14.80
2007,04,06,10,03,14.80
2007,04,06,10,04,14.70
2007,04,06,10,05,14.70
2007,04,06,10,06,14.80
2007,04,06,10,07,14.80
2007,04,06,10,08,14.70
2007,04,06,10,09,14.70
2007,04,06,10,10,14.70
2007,04,06,10,11,14.60
2007,04,06,10,12,14.60
2007,04,06,10,13,14.60
2007,04,06,10,14,14.50
2007,04,06,10,15,14.40
2007,04,06,10,16,14.30
2007,04,06,10,17,14.20
2007,04,06,10,18,14.10
2007,04,06,10,19,14.10
2007,04,06,10,20,14.20
2007,04,06,10,21,14.20
2007,04,06,10,22,14.10
2007,04,06,10,23,14.10
2007,04,06,10,24,14.10
2007,04,06,10,25,14.10
2007,04,06,10,26,14.10
2007,04,06,10,27,14.10
2007,04,06,10,28,14.20
2007,04,06,10,29,14.20
2007,04,06,10,30,14.30
2007,04,06,10,31,14.40
2007,04,06,10,32,14.40
2007,04,06,10,33,14.40
2007,04,06,10,34,14.40
2007,04,06,10,35,14.40
2007,04,06,10,36,14.40
2007,04,06,10,37,14.40
2007,04,06,10,38,14.40
2007,04,06,10,39,14.40
2007,04,06,10,40,14.40
2007,04,06,10,41,14.40
2007,04,06,10,42,14.40
2007,04,06,10,43,14.50
2007,04,06,10,44,14.50
2007,04,06,10,45,14.60
2007,04,06,10,46,14.70
2007,04,06,10,47,14.80
2007,04,06,10,48,14.90
2007,04,06,10,49,15.00
2007,04,06,10,50,15.00
2007,04,06,10,51,15.00
2007,04,06,10,52,15.00
2007,04,06,10,53,15.00
2007,04,06,10,54,15.00
2007,04,06,10,55,15.00
2007,04,06,10,56,15.10
2007,04,06,10,57,15.30
2007,04,06,10,58,15.40
2007,04,06,10,59,15.50
2007,04,06,11,00,15.60
2007,04,06,11,01,15.70
2007,04,06,11,02,15.90
2007,04,06,11,03,16.00
2007,04,06,11,04,16.10
2007,04,06,11,05,16.10
2007,04,06,11,06,16.20
2007,04,06,11,07,16.20
2007,04,06,11,08,16.20
2007,04,06,11,09,16.20
2007,04,06,11,10,16.30
2007,04,06,11,11,16.30
2007,04,06,11,12,16.30
2007,04,06,11,13,16.30
2007,04,06,11,14,16.30
2007,04,06,11,15,16.30
2007,04,06,11,16,16.30
2007,04,06,11,17,16.40
2007,04,06,11,18,16.40
2007,04,06,11,19,16.50
2007,04,06,11,20,16.50
2007,04,06,11,21,16.70
2007,04,06,11,22,16.80
2007,04,06,11,23,16.90
2007,04,06,11,24,16.90
2007,04,06,11,25,17.00
2007,04,06,11,26,17.10
2007,04,06,11,27,17.10
2007,04,06,11,28,17.10
2007,04,06,11,29,17.20
2007,04,06,11,30,17.20
2007,04,06,11,31,17.20
2007,04,06,11,32,17.20
2007,04,06,11,33,17.10
2007,04,06,11,34,17.10
2007,04,06,11,35,17.10
2007,04,06,11,36,17.00
2007,04,06,11,37,16.90
2007,04,06,11,38,16.80
2007,04,06,11,39,16.70
2007,04,06,11,40,16.70
2007,04,06,11,41,16.60
2007,04,06,11,42,16.60
2007,04,06,11,43,16.60
2007,04,06,11,44,16.60
2007,04,06,11,45,16.60
2007,04,06,11,46,16.60
2007,04,06,11,47,16.60
2007,04,06,11,48,16.50
2007,04,06,11,49,16.40
2007,04,06,11,50,16.40
2007,04,06,11,51,16.40
2007,04,06,11,52,16.40
2007,04,06,11,53,16.40
2007,04,06,11,54,16.30
2007,04,06,11,55,16.30
2007,04,06,11,56,16.30
2007,04,06,11,57,16.30
2007,04,06,11,58,16.40
2007,04,06,11,59,16.50
2007,04,06,12,00,16.60
2007,04,06,12,01,16.60
2007,04,06,12,02,16.60
2007,04,06,12,03,16.70
2007,04,06,12,04,16.80
2007,04,06,12,05,16.80
2007,04,06,12,06,16.90
2007,04,06,12,07,17.00
2007,04,06,12,08,17.10
2007,04,06,12,09,17.20
2007,04,06,12,10,17.20
2007,04,06,12,11,17.20
2007,04,06,12,12,17.30
2007,04,06,12,13,17.50
2007,04,06,12,14,17.60
2007,04,06,12,15,17.60
2007,04,06,12,16,17.60
2007,04,06,12,17,17.70
2007,04,06,12,18,17.80
2007,04,06,12,19,17.90
2007,04,06,12,20,18.00
2007,04,06,12,21,18.10
2007,04,06,12,22,18.20
2007,04,06,12,23,18.20
2007,04,06,12,24,18.20
2007,04,06,12,25,18.20
2007,04,06,12,26,18.20
2007,04,06,12,27,18.20
2007,04,06,12,28,18.20
2007,04,06,12,29,18.20
2007,04,06,12,30,18.30
2007,04,06,12,31,18.30
2007,04,06,12,32,18.30
2007,04,06,12,33,18.40
2007,04,06,12,34,18.40
2007,04,06,12,35,18.30
2007,04,06,12,36,18.30
2007,04,06,12,37,18.30
2007,04,06,12,38,18.30
2007,04,06,12,39,18.30
2007,04,06,12,40,18.30
2007,04,06,12,41,18.30
2007,04,06,12,42,18.20
2007,04,06,12,43,18.20
2007,04,06,12,44,18.20
2007,04,06,12,45,18.20
2007,04,06,12,46,18.20
2007,04,06,12,47,18.20
2007,04,06,12,48,18.20
2007,04,06,12,49,18.20
2007,04,06,12,50,18.20
2007,04,06,12,51,18.30
2007,04,06,12,52,18.30
2007,04,06,12,53,18.40
2007,04,06,12,54,18.40
2007,04,06,12,55,18.40
2007,04,06,12,56,18.40
2007,04,06,12,57,18.40
2007,04,06,12,58,18.30
2007,04,06,12,59,18.20
2007,04,06,13,00,18.10
2007,04,06,13,01,18.00
2007,04,06,13,02,17.90
2007,04,06,13,03,17.80
2007,04,06,13,04,17.70
2007,04,06,13,05,17.50
2007,04,06,13,06,17.40
2007,04,06,13,07,17.40
2007,04,06,13,08,17.40
2007,04,06,13,09,17.50
2007,04,06,13,10,17.50
2007,04,06,13,11,17.50
2007,04,06,13,12,17.60
2007,04,06,13,13,17.60
2007,04,06,13,14,17.70
2007,04,06,13,15,17.70
2007,04,06,13,16,17.80
2007,04,06,13,17,17.80
2007,04,06,13,18,17.90
2007,04,06,13,19,18.00
2007,04,06,13,20,18.10
2007,04,06,13,21,18.20
2007,04,06,13,22,18.30
2007,04,06,13,23,18.40
2007,04,06,13,24,18.40
2007,04,06,13,25,18.50
2007,04,06,13,26,18.50
2007,04,06,13,27,18.50
2007,04,06,13,28,18.60
2007,04,06,13,29,18.60
2007,04,06,13,30,18.60
2007,04,06,13,31,18.60
2007,04,06,13,32,18.60
2007,04,06,13,33,18.60
2007,04,06,13,34,18.60
2007,04,06,13,35,18.70
2007,04,06,13,36,18.80
2007,04,06,13,37,18.90
2007,04,06,13,38,19.00
2007,04,06,13,39,19.10
2007,04,06,13,40,19.10
2007,04,06,13,41,19.20
2007,04,06,13,42,19.30
2007,04,06,13,43,19.40
2007,04,06,13,44,19.50
2007,04,06,13,45,19.60
2007,04,06,13,46,19.70
2007,04,06,13,47,19.80
2007,04,06,13,48,19.90
2007,04,06,13,49,19.90
2007,04,06,13,50,19.90
2007,04,06,13,51,19.90
2007,04,06,13,52,19.80
2007,04,06,13,53,19.80
2007,04,06,13,54,19.70
2007,04,06,13,55,19.40
2007,04,06,13,56,19.30
2007,04,06,13,57,19.20
2007,04,06,13,58,19.10
2007,04,06,13,59,18.90
2007,04,06,14,00,18.90
2007,04,06,14,01,18.80
2007,04,06,14,02,18.80
2007,04,06,14,03,18.80
2007,04,06,14,04,18.80
2007,04,06,14,05,18.80
2007,04,06,14,06,18.90
2007,04,06,14,07,18.90
2007,04,06,14,08,18.90
2007,04,06,14,09,18.90
2007,04,06,14,10,19.00
2007,04,06,14,11,19.00
2007,04,06,14,12,19.10
2007,04,06,14,13,19.20
2007,04,06,14,14,19.10
2007,04,06,14,15,19.10
2007,04,06,14,16,19.10
2007,04,06,14,17,19.20
2007,04,06,14,18,19.30
2007,04,06,14,19,19.40
2007,04,06,14,20,19.50
2007,04,06,14,21,19.50
2007,04,06,14,22,19.60
2007,04,06,14,23,19.60
2007,04,06,14,24,19.50
2007,04,06,14,25,19.50
2007,04,06,14,26,19.50
2007,04,06,14,27,19.50
2007,04,06,14,28,19.70
2007,04,06,14,29,19.80
2007,04,06,14,30,19.80
2007,04,06,14,31,19.90
2007,04,06,14,32,20.00
2007,04,06,14,33,20.10
2007,04,06,14,34,20.10
2007,04,06,14,35,20.10
2007,04,06,14,36,20.10
2007,04,06,14,37,20.10
2007,04,06,14,38,20.10
2007,04,06,14,39,20.10
2007,04,06,14,40,20.30
2007,04,06,14,41,20.40
2007,04,06,14,42,20.40
2007,04,06,14,43,20.30
2007,04,06,14,44,20.20
2007,04,06,14,45,20.10
2007,04,06,14,46,20.10
2007,04,06,14,47,20.00
2007,04,06,14,48,20.00
2007,04,06,14,49,19.90
2007,04,06,14,50,20.00
2007,04,06,14,51,20.00
2007,04,06,14,52,20.00
2007,04,06,14,53,20.00
2007,04,06,14,54,20.10
2007,04,06,14,55,20.10
2007,04,06,14,56,20.10
2007,04,06,14,57,20.10
2007,04,06,14,58,20.10
2007,04,06,14,59,20.10
2007,04,06,15,00,20.20
2007,04,06,15,01,20.10
2007,04,06,15,02,20.10
2007,04,06,15,03,20.00
2007,04,06,15,04,20.00
2007,04,06,15,05,20.00
2007,04,06,15,06,20.10
2007,04,06,15,07,20.10
2007,04,06,15,08,20.10
2007,04,06,15,09,20.10
2007,04,06,15,10,20.20
2007,04,06,15,11,20.20
2007,04,06,15,12,20.30
2007,04,06,15,13,20.30
2007,04,06,15,14,20.40
2007,04,06,15,15,20.50
2007,04,06,15,16,20.50
2007,04,06,15,17,20.60
2007,04,06,15,18,20.60
2007,04,06,15,19,20.70
2007,04,06,15,20,20.70
2007,04,06,15,21,20.70
2007,04,06,15,22,20.80
2007,04,06,15,23,20.90
2007,04,06,15,24,21.00
2007,04,06,15,25,21.00
2007,04,06,15,26,20.90
2007,04,06,15,27,20.80
2007,04,06,15,28,20.80
2007,04,06,15,29,20.80
2007,04,06,15,30,20.80
2007,04,06,15,31,20.80
2007,04,06,15,32,20.90
2007,04,06,15,33,20.90
2007,04,06,15,34,20.90
2007,04,06,15,35,20.80
2007,04,06,15,36,20.80
2007,04,06,15,37,20.90
2007,04,06,15,38,21.00
2007,04,06,15,39,21.10
2007,04,06,15,40,21.10
2007,04,06,15,41,21.20
2007,04,06,15,42,21.10
2007,04,06,15,43,21.10
2007,04,06,15,44,21.20
2007,04,06,15,45,21.20
2007,04,06,15,46,21.30
2007,04,06,15,47,21.30
2007,04,06,15,48,21.40
2007,04,06,15,49,21.50
2007,04,06,15,50,21.60
2007,04,06,15,51,21.70
2007,04,06,15,52,21.70
2007,04,06,15,53,21.80
2007,04,06,15,54,21.80
2007,04,06,15,55,21.80
2007,04,06,15,56,21.90
2007,04,06,15,57,22.00
2007,04,06,15,58,22.10
2007,04,06,15,59,22.10
2007,04,06,16,00,22.20
2007,04,06,16,01,22.20
2007,04,06,16,02,22.20
2007,04,06,16,03,22.20
2007,04,06,16,04,22.30
2007,04,06,16,05,22.30
2007,04,06,16,06,22.20
2007,04,06,16,07,22.20
2007,04,06,16,08,22.10
2007,04,06,16,09,22.00
2007,04,06,16,10,21.90
2007,04,06,16,11,21.80
2007,04,06,16,12,21.70
2007,04,06,16,13,21.70
2007,04,06,16,14,21.60
2007,04,06,16,15,21.50
2007,04,06,16,16,21.40
2007,04,06,16,17,21.30
2007,04,06,16,18,21.20
2007,04,06,16,19,21.20
2007,04,06,16,20,21.10
2007,04,06,16,21,21.10
2007,04,06,16,22,21.10
2007,04,06,16,23,21.00
2007,04,06,16,24,21.00
2007,04,06,16,25,20.90
2007,04,06,16,26,20.80
2007,04,06,16,27,20.80
2007,04,06,16,28,20.70
2007,04,06,16,29,20.60
2007,04,06,16,30,20.60
2007,04,06,16,31,20.50
2007,04,06,16,32,20.40
2007,04,06,16,33,20.40
2007,04,06,16,34,20.40
2007,04,06,16,35,20.20
2007,04,06,16,36,20.10
2007,04,06,16,37,20.00
2007,04,06,16,38,19.90
2007,04,06,16,39,19.90
2007,04,06,16,40,19.80
2007,04,06,16,41,19.80
2007,04,06,16,42,19.70
2007,04,06,16,43,19.70
2007,04,06,16,44,19.80
2007,04,06,16,45,19.80
2007,04,06,16,46,19.80
2007,04,06,16,47,19.80
2007,04,06,16,48,19.80
2007,04,06,16,49,19.90
2007,04,06,16,50,20.00
2007,04,06,16,51,20.10
2007,04,06,16,52,20.30
2007,04,06,16,53,20.40
2007,04,06,16,54,20.60
2007,04,06,16,55,20.70
2007,04,06,16,56,20.80
2007,04,06,16,57,20.80
2007,04,06,16,58,20.90
2007,04,06,16,59,20.90
2007,04,06,17,00,21.00
2007,04,06,17,01,21.10
2007,04,06,17,02,21.20
2007,04,06,17,03,21.20
2007,04,06,17,04,21.20
2007,04,06,17,05,21.20
2007,04,06,17,06,21.20
2007,04,06,17,07,21.20
2007,04,06,17,08,21.20
2007,04,06,17,09,21.20
2007,04,06,17,10,21.20
2007,04,06,17,11,21.10
2007,04,06,17,12,21.00
2007,04,06,17,13,20.90
2007,04,06,17,14,20.90
2007,04,06,17,15,20.90
2007,04,06,17,16,20.80
2007,04,06,17,17,20.80
2007,04,06,17,18,20.80
2007,04,06,17,19,20.80
2007,04,06,17,20,20.80
2007,04,06,17,21,20.80
2007,04,06,17,22,20.80
2007,04,06,17,23,20.80
2007,04,06,17,24,20.80
2007,04,06,17,25,21.00
2007,04,06,17,26,21.10
2007,04,06,17,27,21.20
2007,04,06,17,28,21.30
2007,04,06,17,29,21.40
2007,04,06,17,30,21.60
2007,04,06,17,31,21.70
2007,04,06,17,32,21.70
2007,04,06,17,33,21.70
2007,04,06,17,34,21.70
2007,04,06,17,35,21.70
2007,04,06,17,36,21.70
2007,04,06,17,37,21.70
2007,04,06,17,38,21.70
2007,04,06,17,39,21.70
2007,04,06,17,40,21.70